Regional Weather Roundup
Issued by NWS

Home | Current Version | Previous Version | Graphics & Text | Print | Product List | Glossary On
Versions: 1 2 3 4 5 6 7 8 9 10 11 12 13 14 15 16 17 18 19 20 21 22 23 24 25 26 27 28 29 30 31 32 33 34 35 36 37 38 39 40 41 42 43 44 45 46 47 48 49 50
000
ASUS45 KABQ 301801
RWRNM
NEW MEXICO REGIONAL WEATHER ROUNDUP
NATIONAL WEATHER SERVICE ALBUQUERQUE NM
1200 PM MDT THU JUL 30 2015

NOTE: "FAIR" MEANS FEW OR NO CLOUDS BELOW 12,000 FEET AGL WITH NO
       SIGNIFICANT WEATHER OR OBSTRUCTIONS TO VISION.

      THIS PRODUCT IS RELEASED AS TWO VERSIONS.  ONE VERSION NEAR
      THE TOP OF THE HOUR CONTAINING PRELIMINARY DATA FROM ALBUQUERQUE
      AND OTHER STATIONS.  A FINAL VERSION WITH ADDITIONAL DATA IS
      ISSUED ABOUT 10 MINUTES AFTER THE HOUR.

NMZ501-503-504-510>518-301900-
NORTHWEST PLATEAU/NORTHCENTRAL MOUNTAINS

CITY           SKY/WX    TMP DP  RH WIND       PRES   REMARKS
FARMINGTON     SUNNY     79  54  41 CALM      30.36F
6HR MIN TEMP:  61; 6HR MAX TEMP:  80;

SANTA FE       CLOUDY    66  56  70 N6        30.46S
6HR MIN TEMP:  61; 6HR MAX TEMP:  66; 6HR PCP: TRACE;

TAOS           CLOUDY    66  48  52 SW6       30.51S

$$
NMZ402-403-502-505>509-301900-
WESTCENTRAL MOUNTAINS/SOUTHWEST MOUNTAINS

CITY           SKY/WX    TMP DP  RH WIND       PRES   REMARKS
GALLUP         CLOUDY    71  57  61 VRB3      30.43F
6HR MIN TEMP:  58; 6HR MAX TEMP:  72;

SILVER CITY      N/A     73  59  60 E6        30.38S

$$
NMZ407-409-411-412-301900-
SOUTHERN DESERTS

CITY           SKY/WX    TMP DP  RH WIND       PRES   REMARKS
DEMING         SUNNY     77  61  57 VRB3      30.29F
6HR MIN TEMP:  65; 6HR MAX TEMP:  78;

ALAMOGORDO     PTSUNNY   81  61  50 NW9       30.27R
T OR C         MOSUNNY   74  61  63 NE7       30.33F
6HR MIN TEMP:  65; 6HR MAX TEMP:  74; 6HR PCP: TRACE;


$$
NMZ519>523-301900-
CENTRAL VALLEYS/CENTRAL HIGHLANDS

CITY           SKY/WX    TMP DP  RH WIND       PRES   REMARKS
ALBUQUERQUE    PTSUNNY   75  59  57 VRB7      30.39S
6HR MIN TEMP:  65; 6HR MAX TEMP:  76; 6HR PCP:  0.01;

DOUBLE EAGLE   PTSUNNY   73  59  60 N8        30.43S
CLINES CORNERS CLOUDY    67  57  70 CALM      30.48S
6HR MIN TEMP:  57; 6HR MAX TEMP:  67;

BELEN          MOCLDY    73  59  61 CALM      30.38S
6HR MIN TEMP:  64; 6HR MAX TEMP:  73; 6HR PCP:  0.03;

SOCORRO        NOT AVBL

$$
NMZ524>526-539-540-301900-
SOUTHCENTRAL MOUNTAINS

CITY           SKY/WX    TMP DP  RH WIND       PRES   REMARKS
RUIDOSO          N/A    N/A N/A N/A MISG        N/A

$$
NMZ527>531-301900-
NORTHEAST HIGHLANDS/NORTHEAST PLAINS

CITY           SKY/WX    TMP DP  RH WIND       PRES   REMARKS
LAS VEGAS      CLOUDY    65  56  72 SW5       30.48S
6HR MIN TEMP:  57; 6HR MAX TEMP:  65;

RATON          CLOUDY    71  56  58 CALM      30.42F
6HR MIN TEMP:  57; 6HR MAX TEMP:  71;

CLAYTON        CLOUDY    75  57  53 CALM      30.36S
6HR MIN TEMP:  63; 6HR MAX TEMP:  75; 6HR PCP:  0.14;


$$
NMZ532>537-301900-
EASTCENTRAL PLAINS

CITY           SKY/WX    TMP DP  RH WIND       PRES   REMARKS
TUCUMCARI      MOSUNNY   78  59  51 W3        30.32S
6HR MIN TEMP:  64; 6HR MAX TEMP:  78; 6HR PCP:  0.22;

CANNON AFB     NOT AVBL
CLOVIS AIRPORT MOSUNNY   81  61  50 NE10      30.34R

$$
NMZ028-029-538-301900-
SOUTHEAST PLAINS

CITY           SKY/WX    TMP DP  RH WIND       PRES   REMARKS
ROSWELL        SUNNY     85  62  46 NE9       30.26F
6HR MIN TEMP:  68; 6HR MAX TEMP:  86;

ARTESIA        SUNNY     84  61  45 N8        30.26F
CARLSBAD         N/A     88  60  38 NW8       30.22F
HOBBS          SUNNY     86  57  37 E8        30.27S


$$


USA.gov is the U.S. government's official web portal to all federal, state and local government web resources and services.